[ hide orbit diagram ]
For accurate long-term ephemerides, please instead use our Horizons system.This orbit viewer was implemented using two-body methods, and hence should not be used for determining accurate long-term trajectories (over several years or decades) or planetary encounter circumstances.
Orbital Elements at Epoch 2459200.5 (2020-Dec-17.0) TDB
Reference: JPL 20 (heliocentric ecliptic J2000)
Element | Value | Uncertainty (1-sigma) | Units |
e | .1505835220963647 | 3.7957e-08 | |
a | 2.786733487252131 | 1.383e-08 | au |
q | 2.36709734359782 | 1.0683e-07 | au |
i | 4.590835520096207 | 4.6977e-06 | deg |
node | 35.76271933682285 | 5.2338e-05 | deg |
peri | 102.8084752561734 | 5.4737e-05 | deg |
M | 346.598332364868 | 1.5484e-05 | deg |
tp | 2459263.755446237160 (2021-Feb-18.25544624) | 7.3206e-05 | TDB |
period | 1699.188583492514 4.65 | 1.2649e-05 3.463e-08 | d yr |
n | .2118658302541414 | 1.5772e-09 | deg/d |
Q | 3.206369630906442 | 1.5913e-08 | au |
|
| | Orbit Determination Parameters
Additional Information
|
[ show covariance matrix ]
Physical Parameter Table
Parameter |
Symbol |
Value |
Units |
Sigma |
Reference |
Notes |
absolute magnitude |
H |
15.9 |
|
n/a |
MPO502542 |
|
|
58742 (1998 EG13) Discovered 1998-Mar-01 by Elst, E. W. at La Silla |
Reference: 20030614/Numbers.arc | Last Updated: 2004-04-19 |
|
[ show close-approach data ]
|